FW1970 Weather Reports


Display with metric or nautical units.
time (UTC)temp
F
wind
direction
speed
MPH
gust
MPH
rain 1hr
in
rain 24hr
in
rain mn
in
humidity
%
barometer
mb
20260507011600 49 14 0.0 4.0 0.00 0.48 0.48 53 1011.4
20260507010104 50 355 1.0 3.0 0.00 0.48 0.48 52 1011.3
20260507004606 50 355 1.0 5.0 0.00 0.48 0.48 50 1011.6
20260507003057 51 355 1.0 4.0 0.00 0.48 0.48 50 1011.7
20260507001559 51 360 1.0 4.0 0.00 0.48 0.48 50 1011.5
20260507000056 51 321 2.0 4.0 0.00 0.48 0.48 50 1011.3
20260506234556 52 324 1.0 5.0 0.00 0.48 0.48 49 1011.3
20260506233109 52 17 2.0 8.0 0.00 0.48 0.48 49 1011.3
20260506231600 52 321 4.0 14.0 0.00 0.48 0.48 49 1011.0
20260506230054 53 334 3.0 8.0 0.00 0.48 0.48 50 1010.8
20260506224553 53 324 4.0 8.0 0.00 0.48 0.48 50 1010.7
20260506223049 54 313 4.0 10.0 0.00 0.48 0.48 51 1010.4
20260506221549 54 360 4.0 10.0 0.00 0.48 0.48 52 1010.4
20260506220046 55 319 2.0 6.0 0.00 0.48 0.48 51 1010.1
20260506214549 54 360 2.0 5.0 0.00 0.48 0.48 54 1009.7
20260506213058 53 30 2.0 5.0 0.00 0.48 0.48 55 1009.7
20260506211546 54 325 2.0 8.0 0.00 0.48 0.48 57 1009.7
20260506210042 54 340 4.0 11.0 0.00 0.48 0.48 56 1009.4
20260506204540 54 286 3.0 10.0 0.00 0.48 0.48 57 1009.0
20260506203039 54 336 4.0 9.0 0.00 0.48 0.48 57 1009.2
20260506201542 54 336 1.0 8.0 0.00 0.48 0.48 59 1009.2
20260506200037 53 298 1.0 7.0 0.00 0.48 0.48 60 1009.2
20260506194537 53 340 3.0 8.0 0.00 0.48 0.48 61 1009.2
20260506193037 53 309 3.0 8.0 0.00 0.48 0.48 62 1009.4
20260506191535 53 302 1.0 5.0 0.00 0.48 0.48 63 1009.2
20260506190033 52 340 2.0 6.0 0.00 0.48 0.48 65 1009.1
20260506184544 52 309 5.0 12.0 0.00 0.48 0.48 64 1009.1
20260506183038 53 325 0.0 9.0 0.00 0.48 0.48 64 1008.9
20260506181539 52 335 4.0 9.0 0.00 0.48 0.48 65 1009.0
20260506180033 53 333 1.0 9.0 0.00 0.48 0.48 66 1008.9
20260506174528 52 338 2.0 8.0 0.00 0.48 0.48 65 1008.9
20260506173027 51 287 4.0 12.0 0.00 0.48 0.48 66 1008.8
20260506171526 52 310 5.0 11.0 0.00 0.48 0.48 67 1008.7
20260506170024 52 337 6.0 11.0 0.00 0.48 0.48 68 1008.5
20260506164529 50 24 6.0 11.0 0.00 0.48 0.48 79 1008.5
20260506163021 50 300 3.0 11.0 0.00 0.48 0.48 84 1008.3
20260506161521 49 355 4.0 10.0 0.00 0.48 0.48 84 1008.2
20260506160020 49 305 5.0 13.0 0.00 0.48 0.48 84 1008.1
20260506154516 48 332 5.0 12.0 0.00 0.48 0.48 85 1008.0
20260506153020 49 302 3.0 10.0 0.00 0.48 0.48 85 1007.7
20260506151513 49 11 4.0 8.0 0.00 0.48 0.48 85 1007.5
20260506150011 48 338 5.0 9.0 0.00 0.48 0.48 85 1007.0
20260506144514 48 343 5.0 12.0 0.00 0.48 0.48 85 1006.8
20260506143108 48 333 4.0 12.0 0.00 0.48 0.48 84 1006.6
20260506141506 47 315 3.0 10.0 0.00 0.48 0.48 85 1006.3
20260506140006 47 12 4.0 10.0 0.01 0.48 0.48 85 1006.1
20260506134504 47 311 5.0 16.0 0.01 0.48 0.48 85 1006.0
20260506133059 47 12 8.0 13.0 0.01 0.48 0.48 85 1005.8
20260506133001 47 333 6.0 12.0 0.01 0.48 0.48 84 1005.9
20260506131557 47 316 5.0 13.0 0.01 0.48 0.48 84 1005.7
20260506130057 47 338 9.0 17.0 0.01 0.47 0.47 84 1005.7
20260506124553 48 311 5.0 10.0 0.02 0.47 0.47 84 1004.7
20260506123051 48 24 3.0 8.0 0.04 0.47 0.47 84 1004.4
20260506121547 49 342 4.0 9.0 0.06 0.47 0.47 84 1004.7
20260506120044 49 360 6.0 12.0 0.05 0.46 0.46 84 1004.9
20260506114541 50 349 6.0 13.0 0.05 0.45 0.45 84 1004.8
20260506113040 53 321 7.0 12.0 0.06 0.43 0.43 83 1004.0
20260506111533 56 219 4.0 10.0 0.06 0.41 0.41 85 1003.7
20260506110030 56 198 4.0 8.0 0.09 0.41 0.41 84 1003.7
20260506104533 56 219 2.0 9.0 0.12 0.40 0.40 84 1003.6
20260506103027 55 200 3.0 9.0 0.11 0.37 0.37 83 1003.8
20260506101527 56 190 2.0 9.0 0.11 0.35 0.35 82 1003.9
20260506100024 55 219 4.0 13.0 0.12 0.32 0.32 82 1003.9
20260506094523 56 201 3.0 7.0 0.12 0.28 0.28 79 1003.9
20260506093021 56 194 5.0 15.0 0.13 0.26 0.26 79 1003.8
20260506091519 56 221 4.0 14.0 0.13 0.24 0.24 78 1003.9
20260506090021 56 232 6.0 11.0 0.11 0.20 0.20 77 1004.2
20260506084514 56 211 3.0 11.0 0.07 0.16 0.16 76 1004.4
20260506083012 56 197 4.0 12.0 0.04 0.13 0.13 76 1004.4
20260506081608 56 198 2.0 8.0 0.02 0.11 0.11 74 1004.3
20260506073003 56 167 3.0 6.0 0.02 0.10 0.09 71 1003.9
20260506071502 56 173 2.0 4.0 0.02 0.10 0.09 70 1004.1
20260506070104 56 170 3.0 7.0 0.04 0.10 0.09 70 1004.5
20260506061550 57 217 5.0 10.0 0.04 0.09 0.07 68 1005.1
20260506044538 60 299 2.0 9.0 0.00 0.02 0.00 63 1006.5
20260506043033 60 266 5.0 10.0 0.00 0.02 0.00 62 1006.6
20260506041530 61 290 1.0 8.0 0.00 0.02 0.00 60 1006.3
20260506040029 61 313 2.0 9.0 0.00 0.02 0.00 59 1006.1
20260506034530 61 349 1.0 3.0 0.00 0.02 0.02 57 1005.9
20260506033027 62 349 1.0 4.0 0.00 0.02 0.02 56 1005.7
20260506031525 63 349 3.0 4.0 0.00 0.02 0.02 54 1005.7
20260506030036 64 311 5.0 11.0 0.00 0.02 0.02 50 1006.0
20260506024546 66 333 5.0 10.0 0.00 0.02 0.02 43 1006.0
20260506023022 67 223 6.0 11.0 0.00 0.02 0.02 40 1005.7
20260506021524 67 207 4.0 9.0 0.00 0.02 0.02 40 1005.8
20260506020023 67 234 6.0 9.0 0.00 0.02 0.02 39 1005.6
20260506014523 67 205 4.0 12.0 0.00 0.02 0.02 39 1005.7
20260506013034 68 224 4.0 14.0 0.00 0.02 0.02 39 1005.5